パンスターズ彗星

419P/PanSTARRS (2021)

English version
Home page
Updated on December 18, 2022

---------------------------------------------------------------------

・ プロフィール

符号 P/2021 A11
符号 419P/2021 A11
検出日 2021年1月13日
検出光度 21.3等
検出者 E. Schwab (Egelsbach, Germany)

・ 軌道要素

Epoch 2022 Aug. 9.0 TT = JDT 2459800.5
T 2021 Oct. 27.55128 TT                                 Rudenko
q   2.5435663            (2000.0)            P               Q
n   0.14920318     Peri.  187.53078     -0.67026807     +0.74144228
a   3.5206052      Node    40.38931     -0.67830622     -0.59475283
e   0.2775202      Incl.    2.80296     -0.30106710     -0.31069666
P   6.61
From 255 observations 2015 Jan. 24-2022 June 10, mean residual 0".7.

・ 光度変化

        m1 = 6.0 + 5 logΔ + 25.0 log r(t - 100)

---------------------------------------------------------------------

軌道要素はM.P.E.C. 2022-M21に掲載されたものです。
光度グラフはComet for Windowsで作成したものです。

---------------------------------------------------------------------

Copyright(C) Seiichi Yoshida (comet@aerith.net). All rights reserved.